Wind_Speed
25 25 25 24 24 23 23 22 22 23 23 24 25 25 25 26 27 29 30 31 31 31 31 32 32 32 32 32 32 31 31 30 30 30 31 31 31 33 33 34 35 35 35
27 27 27 27 26 26 26 26 26 27 27 28 28 29 30 30 31 32 33 34 34 34 34 34 33 32 32 32 32 32 32 30 30 31 32 33 34 35 36 37 36 37 38
29 29 29 29 29 29 29 29 30 30 31 30 31 31 32 32 34 35 34 34 36 36 36 34 33 32 31 31 31 31 31 30 30 31 33 34 35 36 37 37 38 39 40
30 30 31 31 31 31 31 31 32 33 33 32 33 34 35 35 35 35 35 35 35 36 35 34 34 33 32 31 32 32 32 33 32 32 33 34 35 37 37 38 39 39 41
30 32 32 33 33 33 32 33 33 34 35 35 36 36 37 37 36 37 37 38 39 39 37 37 36 34 32 33 33 34 34 35 34 33 34 35 38 39 40 41 41 42 44
30 31 33 34 34 34 34 35 36 36 36 36 37 37 37 38 38 39 39 40 41 41 40 38 37 35 35 36 36 36 36 36 36 36 37 39 41 42 43 44 44 46 48
30 31 32 33 34 35 35 36 36 37 37 38 38 39 40 39 40 41 41 41 41 40 39 38 38 38 38 38 37 38 38 37 37 38 40 41 42 43 45 46 48 49 51
30 30 31 32 34 35 36 36 37 37 38 39 40 41 42 42 42 42 43 44 42 41 40 40 40 41 43 42 42 42 40 40 40 41 42 43 44 46 48 49 51 53 55
31 32 32 33 34 35 36 37 37 38 39 40 42 42 43 44 44 43 44 44 43 43 42 43 43 44 45 44 44 43 42 43 43 44 44 46 47 50 51 53 54 56 56
32 33 33 34 35 35 36 37 38 38 39 40 41 42 43 44 45 45 46 45 45 44 45 45 46 46 45 45 44 43 44 45 46 46 47 49 51 52 54 55 57 57 58
32 34 34 35 36 36 37 38 39 40 40 40 41 42 43 44 45 46 46 45 45 45 46 46 46 46 45 45 44 45 46 47 48 49 51 52 53 54 55 56 56 56 57
33 34 35 36 36 36 37 38 38 39 40 40 41 41 43 43 44 45 46 45 45 45 46 45 45 45 46 46 46 47 49 50 51 52 53 54 54 55 55 55 55 55 55
32 33 34 35 35 36 36 37 37 38 38 39 40 40 40 41 42 42 42 43 43 44 44 44 45 45 46 46 46 48 49 51 52 52 52 52 52 52 52 52 51 52 52
31 32 33 34 34 35 36 36 37 37 38 39 39 39 40 40 40 40 40 40 41 41 42 42 43 44 45 46 46 48 49 50 50 49 49 49 49 49 49 49 48 48 47
30 31 31 32 33 34 34 34 35 35 35 36 36 37 38 38 38 38 38 38 38 39 40 41 42 43 44 44 45 46 46 46 46 46 46 45 45 45 44 44 43 42 42
28 28 29 30 31 32 32 32 33 33 33 33 33 34 34 34 34 34 35 36 37 37 38 39 40 41 42 42 42 43 43 42 42 41 41 41 40 39 38 37 37 37 36
26 27 27 28 29 29 29 30 30 29 30 30 30 30 30 31 32 33 33 34 35 35 36 37 37 37 37 37 38 38 38 37 37 37 37 36 35 34 33 32 31 30 30
24 24 24 25 26 27 27 26 26 26 26 27 27 27 28 30 31 32 32 33 33 34 34 34 33 34 34 34 34 34 34 35 35 34 33 32 30 29 28 27 26 26 26
22 22 23 23 23 23 23 23 23 24 24 25 26 26 27 28 29 29 30 30 30 30 30 31 31 31 31 31 32 32 32 31 30 29 27 26 25 24 23 22 22 22 21
20 20 20 20 21 20 20 21 22 22 23 24 24 25 25 26 26 26 27 28 28 28 28 28 28 28 28 29 29 28 28 26 25 24 23 23 22 21 19 19 19 18 18
17 17 17 18 19 20 20 20 21 21 22 22 22 23 23 24 24 24 25 26 26 26 26 26 26 26 26 25 24 24 23 22 22 21 20 19 18 18 17 17 16 16 15
14 15 15 16 17 18 18 18 19 19 20 20 20 21 21 22 22 23 23 23 23 23 23 23 23 23 22 21 21 20 20 20 19 18 17 16 15 15 14 14 14 13 13
13 14 14 15 16 17 17 17 18 18 18 18 19 20 20 20 21 21 21 21 21 21 21 21 20 19 18 18 17 17 16 15 14 14 13 13 13 13 13 13 12 12 13
12 13 14 15 16 16 16 17 17 16 16 17 17 18 19 19 19 19 19 19 19 18 18 17 17 16 15 14 14 13 13 12 11 11 12 12 12 12 12 12 12 12 12
11 12 13 14 15 15 15 14 14 14 15 15 16 16 16 16 16 17 17 17 16 15 15 14 13 12 12 11 11 11 10 10 10 10 11 11 11 11 11 11 12 12 12
10 11 11 12 12 13 13 13 13 14 14 14 14 14 14 14 14 14 14 14 13 12 11 11 10 9 9 9 9 9 9 9 9 10 11 11 11 11 11 12 12 12 12
Wind_Direction
242 245 249 252 253 251 250 249 250 252 253 252 253 256 259 260 261 262 264 267 269 272 275 277 279 281 282 278 275 275 275 275 276 277 276 275 276 277 278 279 276 274 272
244 247 249 252 254 254 252 252 254 254 254 255 254 257 261 264 266 266 265 267 269 271 274 276 282 284 285 281 279 277 277 280 280 279 278 277 276 275 276 278 276 274 274
244 247 249 252 254 254 255 256 258 258 258 259 261 266 268 268 267 268 268 270 268 270 273 276 279 282 285 284 283 284 281 281 283 283 280 279 278 278 278 279 277 275 274
246 247 250 252 253 255 256 256 259 262 264 264 265 265 267 270 273 275 274 277 280 277 275 280 281 282 284 288 289 287 286 284 284 282 280 280 279 280 280 279 277 275 276
247 248 250 251 252 253 255 257 259 263 266 267 268 268 268 270 274 277 278 280 283 280 279 282 283 285 287 290 287 288 289 288 286 284 281 279 280 281 281 279 278 277 277
248 248 249 250 252 253 255 257 261 264 266 268 270 273 275 277 279 281 281 282 284 282 280 284 286 287 289 290 289 289 288 287 286 284 282 281 281 282 282 280 278 278 278
250 250 249 250 251 254 256 258 261 263 265 269 274 277 279 280 279 281 285 288 287 285 285 289 289 290 289 291 290 288 289 286 284 283 282 281 282 283 283 281 280 279 278
251 252 253 253 254 255 257 260 263 265 268 271 274 277 279 280 281 282 284 288 288 289 290 291 291 291 290 289 289 290 287 285 285 284 284 282 283 282 282 282 281 280 279
251 254 256 256 257 258 259 262 265 267 270 273 274 276 278 280 281 283 285 286 286 288 288 289 289 290 290 288 289 287 286 286 285 284 283 283 282 283 282 281 281 281 280
252 255 257 259 260 261 263 265 267 270 272 273 275 277 278 280 281 282 284 284 285 286 287 288 288 288 286 285 285 284 284 285 284 283 283 283 283 283 282 282 283 282 282
255 257 259 261 263 265 267 268 270 272 273 274 276 277 277 278 279 281 282 282 282 283 283 284 284 283 283 283 283 284 285 285 285 284 285 284 284 283 283 284 284 284 283
259 261 261 263 265 267 269 270 271 272 273 274 275 276 277 278 278 278 279 278 279 279 280 281 281 282 284 284 284 286 286 287 286 286 286 286 286 285 285 285 285 285 285
262 264 265 266 267 269 270 270 270 272 273 273 274 276 277 277 277 277 277 278 279 279 280 281 282 284 285 285 286 286 287 288 288 288 288 288 288 288 287 287 287 287 287
265 267 267 268 269 269 269 270 271 273 273 273 274 275 277 277 277 276 277 278 278 279 280 283 285 286 287 287 288 289 290 291 291 291 292 291 291 290 289 289 288 288 288
269 270 269 270 270 271 271 271 272 272 273 273 273 275 276 276 277 278 278 280 280 281 284 286 287 287 289 290 291 293 294 294 294 295 295 295 294 293 292 291 290 290 289
271 272 271 271 271 272 272 272 271 272 272 272 273 275 276 276 278 280 282 283 285 287 288 290 290 291 292 293 295 296 297 298 299 300 300 299 298 297 296 294 293 293 293
270 269 269 270 271 272 272 270 270 270 272 273 273 275 277 279 282 283 283 284 287 288 291 292 293 293 295 295 297 298 299 301 302 303 303 303 302 301 299 298 298 297 297
269 268 269 270 269 269 270 271 273 272 273 275 276 276 278 281 283 284 286 288 290 291 292 293 295 297 298 300 302 303 305 305 306 306 305 305 305 304 304 303 302 302 302
266 267 269 270 271 271 273 274 276 277 278 280 280 281 284 286 288 289 291 292 293 294 295 297 299 301 303 304 306 308 309 309 310 310 310 310 310 311 311 310 310 310 309
267 269 273 275 275 277 276 276 279 281 283 284 286 287 288 289 290 292 292 293 295 296 298 299 302 304 305 307 309 310 312 312 313 314 315 315 316 318 319 319 319 318 318
274 274 276 277 279 278 279 281 283 284 285 286 288 290 292 293 293 294 295 296 297 298 299 301 304 306 308 309 310 313 315 316 318 319 319 320 322 324 325 326 326 327 329
278 279 280 281 283 284 285 285 285 285 286 288 291 294 296 297 299 299 299 299 299 300 301 303 305 308 310 311 313 315 317 320 322 324 326 329 331 334 336 337 339 341 343
284 282 284 286 286 285 286 286 287 288 290 291 293 296 298 301 302 302 302 302 302 302 303 305 308 311 314 316 318 320 323 327 331 334 338 341 344 346 347 349 352 355 354
291 289 289 290 290 289 289 291 292 293 293 294 297 299 301 302 303 304 304 305 304 304 306 308 311 314 318 321 324 328 333 338 343 348 351 352 352 353 355 359 3 4 2
301 299 297 295 295 294 294 294 295 295 297 299 301 303 303 304 304 305 306 307 307 307 310 312 316 320 325 328 332 338 344 350 355 358 360 0 2 7 10 11 9 8 8
312 308 307 306 305 305 303 300 299 298 299 301 304 306 307 308 309 310 311 312 313 315 317 320 324 330 335 342 347 353 358 1 4 7 8 9 11 13 14 12 12 13 13
Height
5858 5860 5862 5863 5865 5866 5867 5867 5868 5868 5868 5868 5868 5868 5868 5867 5866 5865 5865 5863 5863 5862 5861 5860 5858 5856 5855 5853 5852 5851 5850 5849 5848 5847 5846 5845 5844 5843 5842 5840 5839 5838 5837
5853 5855 5857 5859 5860 5861 5862 5862 5863 5863 5863 5863 5863 5862 5862 5861 5860 5859 5857 5857 5856 5855 5854 5853 5851 5849 5848 5846 5845 5843 5842 5841 5840 5839 5838 5837 5836 5835 5833 5832 5830 5829 5828
5848 5850 5851 5853 5854 5855 5856 5857 5857 5857 5857 5857 5857 5856 5855 5855 5854 5853 5851 5849 5849 5848 5847 5845 5843 5842 5840 5839 5837 5836 5835 5834 5833 5831 5830 5829 5827 5826 5825 5823 5821 5820 5819
5842 5844 5845 5847 5848 5849 5850 5851 5851 5851 5851 5851 5851 5850 5849 5848 5847 5845 5844 5843 5841 5840 5838 5837 5835 5833 5832 5831 5830 5829 5827 5826 5825 5823 5821 5820 5818 5816 5815 5813 5811 5809 5808
5835 5837 5839 5840 5842 5843 5844 5844 5844 5845 5845 5844 5844 5843 5842 5841 5839 5838 5836 5835 5833 5832 5830 5829 5827 5826 5824 5823 5822 5820 5819 5817 5816 5814 5813 5811 5809 5806 5805 5802 5801 5798 5796
5828 5830 5831 5833 5835 5836 5837 5838 5838 5838 5838 5837 5836 5835 5834 5833 5832 5830 5828 5827 5825 5823 5821 5820 5818 5817 5816 5815 5813 5812 5810 5809 5807 5805 5803 5801 5799 5796 5793 5791 5788 5786 5784
5821 5823 5824 5826 5827 5829 5830 5830 5830 5830 5830 5829 5829 5828 5826 5824 5823 5822 5820 5818 5816 5814 5813 5811 5810 5808 5807 5806 5804 5803 5801 5799 5797 5795 5792 5790 5787 5784 5782 5778 5775 5772 5769
5814 5816 5817 5819 5820 5821 5822 5822 5822 5822 5822 5821 5820 5819 5818 5816 5814 5813 5812 5810 5808 5806 5805 5804 5802 5800 5798 5796 5794 5792 5790 5788 5786 5783 5781 5778 5775 5772 5769 5765 5762 5758 5754
5808 5809 5810 5811 5812 5813 5813 5814 5814 5814 5814 5813 5812 5811 5809 5808 5806 5804 5803 5801 5799 5797 5795 5794 5792 5791 5788 5785 5783 5781 5779 5777 5774 5771 5768 5765 5762 5758 5754 5750 5746 5743 5738
5801 5801 5802 5803 5804 5804 5805 5805 5805 5805 5804 5803 5803 5801 5800 5798 5797 5795 5793 5792 5789 5787 5786 5784 5782 5779 5777 5774 5772 5770 5767 5764 5761 5758 5755 5751 5747 5743 5739 5735 5730 5726 5721
5793 5794 5794 5795 5795 5795 5795 5795 5795 5795 5794 5793 5793 5791 5790 5789 5787 5785 5783 5782 5780 5778 5775 5773 5771 5768 5766 5763 5761 5758 5755 5752 5748 5745 5741 5736 5732 5727 5723 5718 5713 5708 5704
5784 5785 5785 5786 5786 5786 5786 5786 5785 5785 5784 5783 5782 5781 5780 5778 5777 5775 5773 5771 5769 5767 5765 5762 5759 5757 5754 5752 5749 5745 5742 5738 5735 5730 5725 5721 5716 5711 5706 5701 5696 5692 5687
5775 5776 5776 5776 5777 5777 5776 5776 5775 5775 5774 5773 5772 5771 5769 5768 5766 5764 5762 5760 5758 5756 5754 5751 5748 5745 5743 5740 5736 5733 5729 5725 5720 5715 5710 5705 5700 5695 5690 5685 5681 5676 5672
5767 5767 5767 5767 5767 5767 5766 5766 5766 5765 5764 5763 5762 5760 5759 5757 5755 5753 5752 5750 5747 5745 5743 5740 5737 5734 5731 5727 5724 5720 5715 5710 5705 5700 5695 5690 5685 5680 5676 5671 5667 5662 5658
5759 5759 5758 5758 5758 5757 5757 5756 5756 5755 5754 5753 5752 5750 5749 5747 5745 5744 5742 5739 5737 5734 5732 5729 5726 5723 5719 5715 5711 5707 5702 5697 5692 5687 5682 5676 5671 5666 5662 5658 5653 5649 5645
5750 5750 5750 5749 5749 5748 5748 5747 5746 5745 5744 5743 5742 5741 5739 5738 5736 5734 5732 5730 5727 5725 5722 5718 5715 5712 5708 5704 5700 5695 5691 5685 5680 5675 5669 5664 5659 5655 5650 5646 5642 5638 5634
5742 5742 5742 5741 5740 5740 5739 5739 5738 5736 5735 5734 5733 5732 5731 5729 5727 5725 5723 5721 5718 5715 5712 5709 5705 5702 5698 5693 5689 5684 5680 5675 5670 5665 5659 5654 5649 5645 5641 5636 5632 5629 5625
5735 5734 5734 5733 5733 5732 5731 5730 5729 5728 5727 5726 5725 5723 5722 5721 5719 5717 5714 5712 5709 5706 5703 5699 5696 5692 5688 5684 5679 5675 5670 5665 5660 5656 5650 5645 5641 5636 5632 5628 5625 5621 5618
5728 5728 5727 5726 5726 5725 5724 5723 5722 5721 5720 5719 5717 5716 5714 5712 5710 5708 5706 5703 5700 5697 5694 5691 5687 5683 5679 5675 5671 5666 5662 5657 5653 5648 5643 5639 5635 5630 5626 5623 5619 5615 5612
5722 5722 5721 5720 5719 5718 5717 5716 5715 5715 5713 5712 5711 5709 5707 5705 5703 5701 5698 5696 5693 5690 5687 5683 5680 5676 5672 5668 5664 5660 5656 5651 5647 5643 5638 5634 5630 5626 5622 5618 5615 5611 5608
5717 5716 5715 5714 5714 5713 5712 5710 5709 5708 5707 5706 5704 5702 5701 5699 5696 5694 5691 5688 5686 5683 5680 5676 5673 5669 5665 5662 5658 5654 5650 5646 5642 5638 5634 5630 5626 5622 5619 5615 5612 5609 5605
5712 5711 5710 5710 5709 5707 5706 5705 5704 5703 5702 5700 5698 5696 5695 5692 5690 5687 5684 5682 5679 5676 5673 5670 5667 5664 5660 5656 5653 5649 5646 5642 5638 5634 5630 5627 5623 5620 5617 5613 5610 5607 5604
5708 5707 5706 5705 5704 5703 5702 5701 5699 5698 5696 5695 5693 5691 5689 5686 5684 5681 5679 5676 5673 5670 5667 5665 5662 5659 5655 5652 5649 5646 5642 5639 5635 5632 5629 5625 5622 5619 5616 5613 5610 5607 5604
5705 5703 5702 5701 5700 5698 5697 5696 5694 5692 5691 5689 5688 5685 5683 5681 5679 5676 5673 5670 5668 5665 5663 5660 5657 5655 5652 5649 5646 5643 5640 5637 5634 5631 5628 5625 5622 5619 5616 5613 5610 5607 5604
5702 5700 5699 5697 5696 5694 5692 5691 5690 5688 5687 5685 5683 5681 5679 5676 5674 5671 5668 5666 5663 5661 5659 5656 5654 5651 5649 5647 5644 5641 5639 5636 5633 5631 5628 5625 5622 5619 5616 5614 5611 5608 5605
5699 5697 5696 5694 5692 5690 5689 5687 5686 5684 5683 5681 5679 5677 5674 5672 5669 5667 5664 5662 5660 5657 5655 5653 5652 5649 5648 5645 5643 5641 5638 5636 5633 5631 5628 5625 5623 5620 5617 5614 5611 5608 5605